Regional Weather Roundup
Issued by NWS Green Bay, WI

Home | Current Version | Previous Version | Text Only | Print | Product List | Glossary On
Versions: 1 2 3 4 5 6 7 8 9 10 11 12 13 14 15 16 17 18 19 20 21 22 23 24 25 26 27 28 29 30 31 32 33 34 35 36 37 38 39 40 41 42 43 44 45 46 47 48 49 50
000
ASUS43 KGRB 110100
RWRGRB

NORTH-CENTRAL AND NORTHEAST WISCONSIN REGIONAL WEATHER ROUNDUP
NATIONAL WEATHER SERVICE GREEN BAY WI
700 PM CST SAT DEC 10 2016

WIZ005-009-010>012-018-019-110200-
NORTH CENTRAL WISCONSIN

CITY           SKY/WX    TMP DP  RH WIND       PRES   REMARKS
IRONWOOD       LGT SNOW  -6 -10  83 E3        30.28F FOG
MANITOWISH WTR NOT AVBL
ARBOR VITAE    NOT AVBL
EAGLE RIVER    NOT AVBL
LAND O LAKES   CLOUDY    -4  -8  84 CALM      30.26F
RHINELANDER    CLOUDY     6  -1  73 S3        30.25F
PHILLIPS       CLOUDY     4   0  86 CALM      30.24F
ANTIGO         NOT AVBL
TOMAHAWK       NOT AVBL
MERRILL        CLOUDY    10   2  72 CALM      30.28F
$$

WIZ013-073-110200-
NORTHEAST WISCONSIN

CITY           SKY/WX    TMP DP  RH WIND       PRES   REMARKS
IRON MOUNTAIN  CLEAR      6  -2  69 CALM      30.28S
MARINETTE      CLEAR     14   4  64 W5        30.36  WCI   6
OCONTO         PTCLDY    10   5  78 CALM      30.36S
$$

WIZ017-030-035>037-045-110200-
CENTRAL WISCONSIN

CITY           SKY/WX    TMP DP  RH WIND       PRES   REMARKS
MEDFORD        NOT AVBL
WAUSAU         CLOUDY    10   3  73 E5        30.27F WCI   2
MOSINEE        MOCLDY    10   5  79 E3        30.28F
MARSHFIELD     LGT SNOW  12   8  84 S6        30.26F FOG     WCI   3
WISC RAPIDS    LGT SNOW  14  11  87 SE3       30.31F FOG
STEVENS POINT  NOT AVBL
WAUPACA        LGT SNOW  17   9  68 CALM      30.34F
SHAWANO        PTCLDY    15   7  68 CALM      30.34F
CLINTONVILLE   CLOUDY    18   5  57 CALM      30.34F
WAUTOMA        LGT SNOW  15  12  88 SE3       30.33F FOG
$$

WIZ038-039-048-051-110200-
FOX VALLEY

CITY           SKY/WX    TMP DP  RH WIND       PRES   REMARKS
NWS GREEN BAY  CLOUDY    19   9  65 CALM      30.35F
APPLETON       CLOUDY    16   5  62 VRB5      30.32F WCI   9
OSHKOSH        LGT SNOW  17  11  77 SW3       30.34F
FOND DU LAC    LGT SNOW  18  11  74 S3        30.35F
$$

WIZ022-050-052-110200-
EAST CENTRAL WISCONSIN

CITY           SKY/WX    TMP DP  RH WIND       PRES   REMARKS
EPHRAIM        FAIR      13   6  76 S3        30.32F
WASHINGTON ISL CLOUDY    19   5  55 W3        30.32F
STURGEON BAY   PTCLDY    15   7  70 W5        30.35F WCI   8
MANITOWOC      NOT AVBL
SHEBOYGAN      FLURRIES  18   8  65 W5        30.36F
$$

LMZ563-521-522-541>543-110200-
LAKESHORE

STATION/POSITION TIME  TEMP    WIND        PRES    VSBY  WAVE
                       AIR SEA DIR/SP/G                  HT/PER
                 (UTC) (F)     (DEG/KT/KT) (MB)    (MI)  (FT/S)
SHEBOYGAN LKSHOR 0000   19     260/  7/  9 1029.7F
KEWAUNEE LKSHORE 0030   18     330/  2/  7 1027.5F
ALGOMA MARINA    0006             CALM       N/A
NORTHPORT PIER   0040   16      CALM  /  4 1027.4S
SISTER BAY LKSHO 0020   19     190/  8/ 10   N/A
CHAMBERS ISLAND  0040   18     220/  6/  9 1027.1S
MENOMINEE LKSHOR 0030   15     220/  7/  9 1027.1F
$$




USA.gov is the U.S. government's official web portal to all federal, state and local government web resources and services.